Date String (YYYY-MM-DD hh:mm:ss) UTC,Instrument flags,Ambient pressure (hPa),Sample flow (lpm),Bypass flow (lpm),Sample temperature (°C),Ambient temperature (°C),ASC tube jacket temperature (°C),LED temperature (°C),Box temperature (°C),Sample RH (%),Span deviation,Mass concentration (μg/m³),Mass concentration (μg/m³),Mass concentration (μg/m³)
DateTimeUTC,F1_M11,P_M11,Q1_M11,Q2_M11,T1_M11,T2_M11,T3_M11,T4_M11,T5_M11,U1_M11,ZSPAN_M11,X2_M11,X0_M11,X1_M11
2022-02-03 18:00:00,,0827.4,4.99,0.00,23.2,22.6,00.0,32.0,24.9,04.1,0001.6,0009.87,0013.45,0009.46
2022-02-03 18:01:00,,0827.5,5.00,0.00,23.2,22.6,00.0,32.0,24.9,04.1,0001.6,0009.89,0013.11,0009.49
2022-02-03 18:02:00,,0827.5,5.00,0.00,23.2,22.6,00.0,32.0,24.9,04.2,0001.8,0009.91,0012.77,0009.51
2022-02-03 18:03:00,,0827.5,4.99,0.00,23.2,22.5,00.0,32.0,24.9,04.2,0001.9,0009.91,0012.76,0009.52
2022-02-03 18:04:00,,0827.5,5.01,0.00,23.2,22.5,00.0,32.0,24.9,04.3,0001.6,0009.85,0012.70,0009.47
2022-02-03 18:05:00,,0827.5,5.00,0.00,23.1,22.4,00.0,32.0,24.9,04.3,0001.7,0009.76,0012.63,0009.38
2022-02-03 18:06:00,,0827.5,4.99,0.00,23.1,22.3,00.0,32.0,24.8,04.3,0002.4,0009.64,0012.49,0009.28
2022-02-03 18:07:00,,0827.5,5.01,0.00,23.0,22.1,00.0,32.0,24.7,04.3,0002.4,0009.50,0012.29,0009.16
2022-02-03 18:08:00,,0827.6,4.99,0.00,23.0,22.0,00.0,32.0,24.6,04.3,0002.6,0009.42,0012.18,0009.07
2022-02-03 18:09:00,,0827.6,5.01,0.00,22.9,22.0,00.0,31.9,24.6,04.3,0002.6,0009.35,0012.17,0008.99
2022-02-03 18:10:00,,0827.6,4.99,0.00,22.9,21.9,00.0,31.9,24.5,04.3,0002.2,0009.26,0012.09,0008.88
2022-02-03 18:11:00,,0827.6,5.01,0.00,22.8,21.8,00.0,31.9,24.5,04.3,0001.9,0009.18,0012.01,0008.80
2022-02-03 18:12:00,,0827.6,4.99,0.00,22.8,21.8,00.0,31.9,24.4,04.3,0001.8,0009.10,0011.93,0008.72
2022-02-03 18:13:00,,0827.7,5.00,0.00,22.8,21.8,00.0,31.8,24.5,04.3,0002.2,0009.02,0011.81,0008.64
2022-02-03 18:14:00,,0827.7,5.00,0.00,22.8,21.9,00.0,31.8,24.5,04.3,0002.4,0008.98,0012.45,0008.58
2022-02-03 18:15:00,,0827.6,5.01,0.00,22.8,21.9,00.0,31.8,24.5,04.4,0002.5,0008.94,0012.54,0008.55
2022-02-03 18:16:00,,0827.6,5.00,0.00,22.8,22.0,00.0,31.8,24.5,04.4,0002.2,0008.95,0012.56,0008.56
2022-02-03 18:17:00,,0827.6,5.01,0.00,22.8,22.0,00.0,31.8,24.6,04.4,0001.7,0009.02,0012.65,0008.64
2022-02-03 18:18:00,,0827.6,4.99,0.00,22.8,22.0,00.0,31.8,24.6,04.4,0001.8,0009.13,0012.86,0008.72
2022-02-03 18:19:00,,0827.5,5.00,0.00,22.8,22.1,00.0,31.8,24.6,04.4,0001.8,0009.21,0013.00,0008.81
2022-02-03 18:20:00,,0827.6,5.01,0.00,22.9,22.8,00.0,31.8,24.7,04.4,0002.1,0009.28,0013.07,0008.85
2022-02-03 18:21:00,,0827.6,4.98,0.00,23.0,23.7,00.0,31.9,25.0,04.3,0002.4,0009.31,0013.06,0008.90
2022-02-03 18:22:00,,0827.6,5.01,0.00,23.2,23.9,00.0,31.9,25.1,04.3,0002.8,0009.37,0013.16,0008.95
2022-02-03 18:23:00,,0827.6,5.00,0.00,23.2,23.6,00.0,31.9,25.2,04.3,0003.2,0009.40,0014.06,0009.00
2022-02-03 18:24:00,,0827.6,5.00,0.00,23.2,23.4,00.0,32.0,25.2,04.3,0003.3,0009.43,0014.30,0009.02
2022-02-03 18:25:00,,0827.6,5.00,0.00,23.3,23.3,00.0,32.0,25.1,04.4,0003.1,0009.45,0013.71,0009.05
2022-02-03 18:26:00,,0827.6,5.00,0.00,23.3,23.1,00.0,32.0,25.1,04.4,0002.9,0009.48,0013.59,0009.09
2022-02-03 18:27:00,,0827.6,4.99,0.00,23.3,23.0,00.0,32.0,25.1,04.4,0003.0,0009.54,0013.70,0009.13
2022-02-03 18:28:00,,0827.5,5.01,0.00,23.3,22.9,00.0,32.0,25.1,04.4,0003.0,0009.55,0013.97,0009.14
2022-02-03 18:29:00,,0827.5,5.01,0.00,23.3,22.8,00.0,32.0,25.1,04.4,0003.1,0009.55,0014.55,0009.14
2022-02-03 18:30:00,,0827.5,4.98,0.00,23.2,22.7,00.0,31.9,24.8,04.4,0003.4,0009.57,0014.85,0009.16
2022-02-03 18:31:00,,0827.5,5.01,0.00,23.2,22.6,00.0,32.1,25.0,04.4,0003.4,0009.58,0014.96,0009.19
2022-02-03 18:32:00,,0827.5,4.99,0.00,23.2,22.6,00.0,32.1,25.0,04.3,0002.8,0009.65,0015.11,0009.23
2022-02-03 18:33:00,,0827.6,5.01,0.00,23.2,22.5,00.0,32.1,24.9,04.3,0002.1,0009.66,0015.08,0009.26
2022-02-03 18:34:00,,0827.5,4.99,0.00,23.2,22.5,00.0,32.1,24.9,04.4,0001.3,0009.71,0014.25,0009.31
2022-02-03 18:35:00,,0827.5,5.00,0.00,23.2,22.5,00.0,32.1,24.9,04.4,0000.7,0009.75,0014.57,0009.35
2022-02-03 18:36:00,,0827.5,4.99,0.00,23.2,22.5,00.0,32.1,25.0,04.4,0000.9,0009.79,0014.60,0009.39
2022-02-03 18:37:00,,0827.5,5.02,0.00,23.2,22.5,00.0,32.1,25.0,04.4,0001.1,0009.80,0014.57,0009.40
2022-02-03 18:38:00,,0827.6,4.99,0.00,23.2,22.5,00.0,32.1,25.0,04.4,0001.6,0009.79,0014.52,0009.43
2022-02-03 18:39:00,,0827.5,5.01,0.00,23.2,22.5,00.0,32.1,25.0,04.4,0001.8,0009.84,0014.37,0009.44
2022-02-03 18:40:00,,0827.5,5.00,0.00,23.2,22.5,00.0,32.1,25.0,04.3,0001.2,0009.84,0013.92,0009.43
2022-02-03 18:41:00,,0827.5,5.00,0.00,23.2,22.4,00.0,32.1,25.0,04.4,0000.5,0009.87,0013.70,0009.44
2022-02-03 18:42:00,,0827.5,5.01,0.00,23.2,22.4,00.0,32.1,24.9,04.4,0000.3,0009.87,0013.61,0009.46
2022-02-03 18:43:00,,0827.5,5.01,0.00,23.2,22.4,00.0,32.1,24.9,04.4,0000.4,0009.86,0013.52,0009.47
2022-02-03 18:44:00,,0827.5,5.00,0.00,23.2,22.4,00.0,32.1,24.9,04.4,0000.6,0009.89,0013.56,0009.49
2022-02-03 18:45:00,,0827.5,4.99,0.00,23.1,22.4,00.0,32.1,24.9,04.3,0000.8,0009.86,0013.51,0009.45
2022-02-03 18:46:00,,0827.5,5.01,0.00,23.1,22.3,00.0,32.0,24.9,04.3,0001.0,0009.80,0013.03,0009.39
2022-02-03 18:47:00,,0827.4,4.99,0.00,23.1,22.3,00.0,32.0,24.9,04.3,0001.2,0009.77,0013.00,0009.34
2022-02-03 18:48:00,,0827.4,5.01,0.00,23.1,22.3,00.0,32.0,24.9,04.4,0001.4,0009.73,0012.97,0009.30
2022-02-03 18:49:00,,0827.5,4.99,0.00,23.1,22.3,00.0,32.0,24.9,04.4,0000.4,0009.70,0012.91,0009.26
2022-02-03 18:50:00,,0827.5,5.01,0.00,23.1,22.3,00.0,32.0,24.9,04.3,0000.1,0009.63,0012.79,0009.22
2022-02-03 18:51:00,,0827.5,4.99,0.00,23.1,22.3,00.0,32.0,24.9,04.3,0000.6,0009.60,0012.54,0009.20
2022-02-03 18:52:00,,0827.5,5.00,0.00,23.1,22.3,00.0,32.0,24.9,04.3,0000.7,0009.56,0012.46,0009.15
2022-02-03 18:53:00,,0827.4,5.02,0.00,23.1,22.3,00.0,32.0,24.9,04.4,0000.7,0009.53,0012.46,0009.10
2022-02-03 18:54:00,,0827.4,4.99,0.00,23.1,22.2,00.0,32.0,24.9,04.4,0000.9,0009.48,0012.45,0009.03
2022-02-03 18:55:00,,0827.4,5.00,0.00,23.1,22.2,00.0,32.0,24.8,04.4,0001.5,0009.45,0012.45,0008.98
2022-02-03 18:56:00,,0827.4,4.98,0.00,23.1,22.2,00.0,32.0,24.8,04.4,0001.5,0009.43,0012.43,0008.98
2022-02-03 18:57:00,,0827.4,5.01,0.00,23.1,22.2,00.0,32.0,24.8,04.4,0001.5,0009.40,0012.36,0008.96
2022-02-03 18:58:00,,0827.4,4.99,0.00,23.1,22.2,00.0,32.0,24.8,04.4,0001.6,0009.37,0012.33,0008.95
2022-02-03 18:59:00,,0827.4,5.01,0.00,23.0,22.2,00.0,32.0,24.8,04.4,0001.3,0009.38,0012.37,0008.97
